Home   Weather   Oklahoma City   Past weeks

Flag for USA Past Weather in Oklahoma City, Oklahoma, USA — Yesterday and Last 2 Weeks

Now
30 °F

Overcast.


Feels Like: 22 °F
Forecast: 19 / 39 °F
Wind: 9 mph from Southeast

Location: Will Rogers World Airport

Current Time: Dec 9, 2016 at 1:41:52 pm

Latest Report: Dec 9, 2016 at 12:52 pm


Visibility: 10 mi

Pressure: 30.56 "Hg

Humidity: 45%

Dew Point: 11 °F

Location of Oklahoma CityLocation

Past Weather in Oklahoma City — Graph

°F

Oklahoma City Temperature Yesterday

Maximum temperature yesterday: 33 °F (at 2:52 pm)
Minimum temperature yesterday: 22 °F (at 5:52 am)
Average temperature yesterday: 27 °F

High & Low Weather Summary for the Past Weeks

 TemperatureHumidityPressure
High68 °F (Nov 24, 2:52 pm)100% (Nov 26, 7:52 am)30.73 "Hg (Nov 26, 7:52 am)
Low20 °F (Dec 9, 4:52 am)20% (Nov 30, 2:52 pm)29.34 "Hg (Nov 28, 1:52 pm)
Average44 °F65%30.06 "Hg
* Reported Nov 24 11:52 am — Dec 9 11:52 am, Oklahoma City, Weather by CustomWeather, © 2016

Note: Actual official high and low records may vary slightly from our data, if they occured in-between our weather recording intervals... More about our weather records

Advertising

Oklahoma City Weather History for the Previous 24 Hours

Scroll right to see more
 ConditionsComfort  
Time TempWeatherWind HumidityBarometerVisibility
11:52 am
Fri, Dec 9
28 °FOvercast.10 mph49%30.60 "Hg10 mi
10:52 am27 °FOvercast.10 mph53%30.63 "Hg10 mi
9:52 am25 °FOvercast.8 mph60%30.66 "Hg10 mi
8:52 am24 °FPartly sunny.12 mph62%30.64 "Hg10 mi
7:52 am22 °FPartly sunny.8 mph66%30.64 "Hg10 mi
6:52 am23 °FPassing clouds.8 mph60%30.66 "Hg10 mi
5:52 am23 °FPassing clouds.7 mph63%30.66 "Hg10 mi
4:52 am20 °FPassing clouds.6 mph65%30.67 "Hg10 mi
3:52 am21 °FPassing clouds.7 mph62%30.67 "Hg10 mi
2:52 am24 °FPassing clouds.5 mph52%30.68 "Hg10 mi
1:52 am25 °FPassing clouds.6 mph46%30.69 "Hg10 mi
12:52 am27 °FPassing clouds.5 mph42%30.68 "Hg10 mi
11:52 pm
Thu, Dec 8
28 °FPassing clouds.5 mph41%30.69 "Hg10 mi
10:52 pm29 °FPassing clouds.8 mph39%30.70 "Hg10 mi
9:52 pm29 °FPassing clouds.9 mph38%30.69 "Hg10 mi
8:52 pm29 °FOvercast.9 mph38%30.69 "Hg10 mi
7:52 pm29 °FPassing clouds.12 mph39%30.69 "Hg10 mi
6:52 pm29 °FPassing clouds.13 mph41%30.68 "Hg10 mi
5:52 pm30 °FPassing clouds.13 mph38%30.68 "Hg10 mi
4:52 pm30 °FPartly sunny.13 mph38%30.67 "Hg10 mi
3:52 pm30 °FPartly sunny.13 mph38%30.67 "Hg10 mi
2:52 pm33 °FScattered clouds.15 mph33%30.67 "Hg10 mi
1:52 pm32 °FScattered clouds.16 mph33%30.69 "Hg10 mi
Weather by CustomWeather, © 2016

See weather overviewHow to use our weather pages